User: anonymous   Login
Location: Arborea
(39.7744°N, 8.5819°E)
Time: 18:46:57
(UTC+00:00)
Language:

Cosmos 1000 Rocket - Orbit

View from above orbital plane
View from above orbital plane
View from above satellite
View from above satellite

Ground track
Ground track

The orbit data is extracted from the following two-line orbital elements,

1 10777U 78034B   22021.16906101  .00000089  00000-0  74222-4 0  9993
2 10777  82.9409  61.7263 0026386 171.9967 246.0296 13.77454524201527
Epoch (UTC): 21 January 2022 04:03:26
Eccentricity: 0.0026386
inclination: 82.9409°
perigee height: 953 km
apogee height: 992 km
right ascension of ascending node: 61.7263°
argument of perigee: 171.9967°
revolutions per day: 13.77454524
mean anomaly at epoch: 246.0296°
orbit number at epoch: 20152

The dashed part of the orbit path shows where the satellite is in the earth's shadow,  

DLR